Weather in Berat

Albania     40°42′13″N   19°56′38″E
temp.,
°C
wind,
m/s
gust,
m/s
humid.,
%
clouds,
%
prec.,
mm/h
press.,
hPa
HPBL,
m
25 june, sat
sat2523:00+23ese225471 0.0 101312
02:00+22ese22500 0.0 101413
05:00+22se22476 0.0 101318
08:00+28ssw11385 0.0 1014296
11:00+32w33295 0.0 10131880
14:00+33w65295 0.0 10131962
17:00+31wnw65357 0.0 10141531
20:00+25wnw115453 0.0 101411
26 june, sun
sun2623:00+23ese226421 0.0 101519
02:00+21ese116210 0.0 101511
05:00+21ese225622 0.0 101412
08:00+27w11420 0.0 1015388
11:00+31nw46320 0.0 10151584
14:00+32wnw78280 0.0 10142327
17:00+31wnw57310 0.0 10141705
20:00+24w11490 0.0 101511
27 june, mon
mon2723:00+22se21550 0.0 101611
02:00+21se22550 0.0 101611
05:00+20ese22530 0.0 101613
08:00+27ese11380 0.0 1016280
11:00+32nw33280 0.0 10161310
14:00+35wnw46232 0.0 10152205
17:00+34wnw55270 0.0 10141088
20:00+27w11420 0.0 101511
28 june, tue
tue2823:00+24ese21460 0.0 101611
02:00+23ese22450 0.0 101512
05:00+23ese22450 0.0 101516
08:00+30sse11340 0.0 1015270
11:00+35nw44220 0.0 10141315
14:00+35nw65260 0.0 10141555
17:00+35nw44242 0.0 10141224
20:00+27wnw124468 0.0 101412
29 june, wed
wed2923:00+24se3454100 0.0 101656
02:00+23ese2153100 0.0 101516
05:00+22ese225099 0.0 101414
08:00+28ese01376 0.0 1014297
11:00+34wnw222520 0.0 10121093
14:00+37wnw65205 0.0 10112413
17:00+33nw44325 0.0 10111088
20:00+26nnw23490 0.0 101135